Location: Riddle Hill
(39.7867°N, 89.7645°W)
Time: 21:16:47
(UTC+00:00)

Cosmos 1340 - Pass Details

Date: 29 October 2020
Orbit: 501 x 504 km, 81.2° (Epoch: 30 November)

Event Time Altitude Azimuth Distance (km) Brightness Sun altitude
Rises 23:41:19 0° 355° (N) 2,614 6.2 -8.5°
Reaches altitude 10° 23:43:29 10° 1° (N) 1,725 5.2 -9.0°
Maximum altitude 23:47:11 52° 78° (ENE) 632 2.7 -9.7°
Drops below altitude 10° 23:50:52 10° 156° (SSE) 1,711 5.2 -10.4°
Sets 23:53:01 0° 161° (SSE) 2,591 6.2 -10.8°
